SSC

导读

SSC卫星是美国于1983年2月9日发射的航天器,归属美国航天部门管理运营。该卫星与NASA戈达德太空飞行中心的卫星状况中心(SSC)项目相关,该中心长期维护科学卫星轨道星历数据库,为多卫星联合观测提供规划与分析支持,推动日地物理、磁层物理等空间科学领域的国际合作研究,对全球空间物理数据共享与协同观测起到重要支撑作用。

Basic Information
目录编号:
13874
目录名称:
SSC
国际标识:
1983-008H
轨道中心:
EARTH
卫星名称:
SSC
卫星全名:
--
卫星状态:
在轨 (已飞行15913 天)
发射日期:
1983-02-09 UTC
国别 :
美国 (US)
星等 :
--
Orbit Information
数据来源 国际轨道数据
星历时间: 2026-09-04T11:32:45+0800
11小时前
查看轨道信息
半长轴: 7337.355km
偏心率: 0.0699532
轨道倾角: 63.307°
近地点辐角 138.201°
升交点赤经 143.813°
平近点角 227.470°
近地点: 445.946km
远地点: 1472.49km
周期: 104.248分钟
每日圈数: 13.813174
Detailed Information
使用方式:
暂无
2D Orbit Map
3D Orbit Map
Orbit Altitude Analysis Chart
Orbit Inclination Analysis Chart
Orbit Comprehensive Analysis Chart
View Comprehensive Chart
Conjunction Data List
Event ID Objects TCA Miss Dist (km) Collision Risk Probability Collision Risk Index (CRI) Action
CDM_260904-143201-387406-415622
SSC (13874)
2026-09-04T
14:32:24+0000
1.767 km
极远距离
4.037077E-6 低风险 0.47
CDM_260905-010701-387406-734021
SSC (13874)
2026-09-05T
01:07:55+0000
2.046 km
极远距离
2.377946E-6 低风险 0.43
CDM_260906-045401-387406-756921
SSC (13874)
2026-09-06T
04:54:08+0000
2.886 km
极远距离
1.430933E-6 低风险 0.38